#timestamp,LO_Frequency,Hit,StdDev 
1672819215.8,286046999.7,N
1672819235.6,286047002.7,N
1672819255.4,286047002.3,N
1672819275.3,286047000.0,N
1672819295.1,286047002.4,N
1672819315.8,286047000.6,N
1672819335.7,286047002.5,N
1672819355.5,286047001.6,N
1672819375.3,286047001.6,N
1672819395.2,286047001.7,N
1672819415.0,286047001.5,N
1672819415.9,286047001.5,N
1672819435.7,286046999.8,N
1672819455.6,286047002.3,N
1672819475.4,286047001.6,N
1672819495.2,286047001.4,N
1672819515.1,286047002.2,N
1672819516.0,286047002.2,N
1672819535.8,286047001.9,N
1672819555.6,286047001.5,N
1672819575.5,286047001.5,N
1672819595.3,286047001.9,N
1672819615.1,286047002.0,N
1672819635.9,286047001.9,N
1672819655.7,286047001.5,N
1672819675.5,286047001.9,N
1672819695.4,286047001.7,N
1672819715.2,286047001.3,N
1672819735.0,286047001.8,N
1672819735.9,286047001.8,N
1672819755.8,286047003.7,Y
1672819775.6,286047002.1,P
1672819795.4,286047002.2,P
1672819815.3,286047001.7,P
1672819835.1,286047002.0,Y
1672819855.9,286047002.6,P
1672819875.7,286047001.5,P
1672819895.5,286047001.5,P
1672819915.4,286047001.7,Y
1672819935.2,286047000.3,P
1672819955.0,286047002.8,P
1672819955.9,286047002.8,N
1672819975.8,286047001.9,N
1672819995.6,286047002.3,N
1672820015.4,286047001.3,N
1672820035.3,286047004.0,Y
1672820055.1,286047000.6,P
1672820056.0,286047000.6,N
1672820075.8,286047000.8,N
1672820095.7,286046998.4,Y
1672820115.5,286046999.0,P
1672820135.3,286047001.0,N
1672820155.2,286046998.1,N
1672820175.9,286046998.5,N
1672820195.7,286046998.1,N
1672820215.6,286046999.6,N
1672820235.4,286046997.7,N
1672820255.2,286046996.7,N
1672820275.1,286046998.6,N
1672820276.0,286046998.6,N
1672820295.8,286047000.8,N
1672820315.6,286046998.3,N
1672820335.5,286047001.0,N
1672820355.3,286047000.4,N
1672820375.1,286047000.6,N
1672820395.9,286047001.2,N
1672820415.7,286046999.2,N
1672820435.5,286046999.4,N
1672820455.4,286046998.5,N
1672820475.2,286047000.6,N
1672820495.0,286047000.9,N
1672820495.9,286047000.9,N
1672820515.8,286046998.1,N
1672820535.6,286047001.0,N
1672820555.4,286046998.4,N
1672820575.3,286046998.8,N
1672820595.1,286046998.3,N
1672820615.8,286047000.6,N
1672820635.7,286047000.2,N
1672820655.5,286047000.6,N
1672820675.3,286046998.6,N
1672820695.2,286047000.6,N
1672820715.9,286046998.6,N
1672820735.7,286046999.3,N
1672820755.6,286046998.2,N
1672820775.4,286046998.3,N
1672820795.2,286047000.7,N
1672820815.1,286047002.8,N
1672820816.0,286047002.8,N
1672820835.8,286047002.6,N
1672820855.6,286046999.8,N
1672820875.5,286047000.1,N
1672820895.3,286047002.6,N
1672820915.1,286047004.2,N
1672820935.9,286047003.8,N
1672820955.7,286047004.3,N
1672820975.5,286047005.7,Y
1672820995.4,286047001.8,P
1672821015.2,286047004.2,P
1672821035.0,286047004.1,N
1672821035.9,286047004.1,N
1672821055.8,286047004.0,N
1672821075.6,286047001.4,N
1672821095.4,286047003.9,N
1672821115.3,286046999.9,N
1672821135.1,286047000.9,N
1672821155.8,286046999.8,N
1672821175.7,286047002.7,N
1672821195.5,286047000.6,N
1672821215.3,286046998.6,N
1672821235.2,286047000.8,N
1672821255.0,286046999.5,N
1672821255.9,286046999.5,N
1672821275.7,286046996.8,N
1672821295.6,286046998.7,N
1672821315.4,286046998.8,N
1672821335.2,286046998.9,N
1672821355.1,286046999.4,N
1672821356.0,286046999.4,N
1672821375.8,286047001.2,N
1672821395.6,286046998.7,N
1672821415.5,286046999.3,N
1672821435.3,286046999.3,N
1672821455.1,286046999.5,N
1672821475.9,286046999.0,N
1672821495.7,286046998.6,N
1672821515.5,286047000.8,N
1672821535.4,286047001.1,N
1672821555.2,286046998.8,N
1672821575.0,286047000.7,N
1672821575.9,286047000.7,N
1672821595.8,286046998.1,N
1672821615.6,286047000.8,N
1672821635.4,286046998.2,N
1672821655.3,286047000.8,N
1672821675.1,286047001.1,N
1672821695.8,286047000.7,N
1672821715.7,286047002.3,N
1672821735.5,286047002.6,N
1672821755.3,286047002.7,N
1672821775.2,286047000.8,N
1672821795.0,286046999.7,N
1672821795.9,286046999.7,N
1672821815.7,286047002.4,N
1672821835.6,286047001.6,N
1672821855.4,286047001.7,N
1672821875.2,286047002.5,N
1672821895.1,286047002.3,N
1672821896.0,286047002.3,N
1672821915.8,286047003.9,N
1672821935.7,286047004.2,N
1672821955.5,286046999.7,N
1672821975.3,286047002.1,N
1672821995.2,286047003.6,N
1672822015.9,286047003.9,N
1672822035.7,286047005.7,Y
1672822055.6,286047001.8,P
1672822075.4,286047002.5,P
1672822095.2,286047001.9,P
1672822115.1,286047002.7,Y
1672822116.0,286047002.7,P
1672822135.8,286047001.0,N
1672822155.6,286047001.1,N
1672822175.5,286046998.8,N
1672822195.3,286046997.1,N
1672822215.1,286046996.7,N
1672822235.9,286046996.7,N
1672822255.7,286046999.4,N
1672822275.5,286046998.0,N
1672822295.4,286046995.0,N
1672822315.2,286046998.0,N
1672822335.0,286046998.0,N
1672822335.9,286046998.0,N
1672822355.8,286046997.8,N
1672822375.6,286046997.9,N
1672822395.4,286046995.5,N
1672822415.3,286046999.1,N
1672822435.1,286046996.7,N
1672822436.0,286046996.7,N
1672822455.8,286046997.4,N
1672822475.7,286046997.6,N
1672822495.5,286046997.4,N
1672822515.3,286046997.5,N
1672822535.2,286046995.4,N
1672822555.9,286046997.7,N
1672822575.7,286046995.6,N
1672822595.6,286046995.5,N
1672822615.4,286046993.7,Y
1672822635.2,286046996.1,P
1672822655.1,286046996.2,P
1672822656.0,286046996.2,P
1672822675.8,286046993.4,Y
1672822695.6,286046999.3,P
1672822715.5,286046997.3,N
1672822735.3,286046997.5,N
1672822755.1,286046995.5,Y
1672822775.9,286046999.2,P
1672822795.7,286046997.4,P
